Location: Cuzcurrita-R�o Tir�n
(42.5415°N, 2.9642°W)
Time: 02:10:10
(UTC+00:00)

Cosmos 1626 - Pass Details

Date: 17 January 2021
Orbit: 490 x 493 km, 82.5° (Epoch: 08 March)

Event Time Altitude Azimuth Distance (km) Brightness Sun altitude
Rises 17:42:16 0° 182° (S) 2,561 6.1 -6.8°
Reaches altitude 10° 17:44:22 10° 180° (S) 1,684 5.1 -7.2°
Maximum altitude 17:48:02 73° 96° (E) 522 2.0 -7.8°
Drops below altitude 10° 17:51:44 10° 12° (NNE) 1,698 4.5 -8.4°
Sets 17:53:52 0° 11° (N) 2,584 5.4 -8.8°
